Regional Weather Roundup
Issued by NWS Upton, NY

Current Version | Previous Version | Text Only | Print | Product List | Glossary On
Versions: 1 2 3 4 5 6 7 8 9 10 11 12 13 14 15 16 17 18 19 20 21 22 23 24 25 26 27
000
ASUS41 KOKX 250709
RWROKX

REGIONAL WEATHER ROUNDUP
NATIONAL WEATHER SERVICE NEW YORK NY
300 AM EDT MON SEP 25 2017

NOTE: "FAIR" INDICATES FEW OR NO CLOUDS BELOW 12,000 FEET WITH NO
SIGNIFICANT WEATHER AND/OR OBSTRUCTIONS TO VISIBILITY.

NYZ071-072-176-178-NJZ106-104-250800-
NEW YORK CITY METRO AREA

CITY           SKY/WX    TMP DP  RH WIND       PRES   REMARKS
Central Park   CLEAR     75  65  70 CALM      30.04F
Bronx Bot Gard   N/A     68  63  83 E2        30.02F
LaGuardia APRT CLEAR     73  65  75 NE3       30.01F
Kennedy INTL   CLEAR     69  30  23 SE3       30.03S
Breezy Point     N/A     70 N/A N/A S3          N/A
Newark/Liberty CLEAR     74  67  78 CALM      30.01F
Teterboro      CLEAR     72  66  81 CALM      30.01S
$$

NYZ177-179-078>081-250800-
LONG ISLAND NEW YORK

CITY           SKY/WX    TMP DP  RH WIND       PRES   REMARKS
Jones Beach      N/A     70 N/A N/A E1          N/A
Matinecock PT    N/A     70 N/A N/A E2          N/A
Farmingdale    CLEAR     68  65  90 CALM      30.02F
MacArthur/ISP  CLEAR     65  63  93 CALM      30.02F
Shirley        CLEAR     65  62  90 CALM      30.03F
Mt Sinai Harb    N/A     66 N/A N/A S3          N/A
Westhampton    CLEAR     58  55  90 CALM      30.04F
East Hampton   FAIR      59  57  95 CALM      30.03F
Montauk          N/A     63  61  93 CALM      30.05S
$$

NYZ052-065-067-250800-
HUDSON VALLEY

CITY           SKY/WX    TMP DP  RH WIND       PRES   REMARKS
White Plains   CLEAR     71  64  78 W8        30.03F
Larchmont Harb   N/A     68 N/A N/A MISG        N/A
Croton On Huds   N/A     68 N/A N/A CALM        N/A
Newburgh       CLEAR     70  68  94 CALM      30.06F
Montgomery     CLEAR     64  63  96 N3        30.05S
Poughkeepsie   PTCLDY    64  62  93 CALM      30.04S
Albany         CLEAR     67  65  93 CALM      30.07S
$$

NJZ001-105-106-008-010-013-015-019>022-104-250800-
NEW JERSEY

CITY           SKY/WX    TMP DP  RH WIND       PRES   REMARKS
Newark/Liberty CLEAR     74  67  78 CALM      30.01F
Teterboro      CLEAR     72  66  81 CALM      30.01S
Caldwell       CLEAR     69  68  96 E3        30.03F
Somerville     NOT AVBL
Linden         FAIR      71  65  81 CALM      30.01
Perth Amboy      N/A     72 N/A N/A SE3         N/A
Sussex         CLEAR     64  64 100 CALM      30.05F
Andover          N/A     64  64 100 CALM      30.06S
Trenton        CLEAR     70  66  87 CALM      30.01S
Millville      CLEAR     65  63  93 CALM      30.02S
Atlantic City  CLEAR     64  62  93 NW3       30.01F
Wrightstown    CLEAR     66  64  93 CALM      30.00S
Toms River     PTCLDY    60  57  89 CALM      30.03S
Belmar         CLEAR     67  64  90 E3        30.03F
$$

PAZ047>061-062-071-250800-
EASTERN PENNSYLVANIA

CITY           SKY/WX    TMP DP  RH WIND       PRES   REMARKS
Philadelphia   PTCLDY    72  67  84 SW3       30.02S
Allentown      CLEAR     67  64  90 CALM      30.04S
Scranton       CLEAR     67  64  90 SE3       30.09S
$$

CTZ002-004>006-009-010-012-RIZ004-006-007-MAZ004-011-015-250800-
SOUTHERN NEW ENGLAND
 IN CT

CITY           SKY/WX    TMP DP  RH WIND       PRES   REMARKS
Bradley INTL   CLEAR     68  66  93 NE3       30.04F
Hartford       PTCLDY    67  65  93 CALM      30.03F
Danbury        CLEAR     65  64  97 CALM      30.06F
Wtrbury/Oxford CLEAR     66  64  93 CALM      30.06F
Norwalk Harbor   N/A     68 N/A N/A N5          N/A
Bridgeport     CLEAR     69  65  86 CALM      30.02F
Meriden        CLEAR     64  63  96 CALM      30.03F
New Haven      CLEAR     64  62  93 CALM      30.03F
Chester        FAIR      64  63  94 CALM      30.04S
Groton         CLEAR     62  59  90 CALM      30.02F
Wilimantic     CLEAR     65  64  97 CALM      30.04F

 IN RI

CITY           SKY/WX    TMP DP  RH WIND       PRES   REMARKS
Providence     CLEAR     64  63  96 S5        30.04S
Block Island   CLEAR     66  63  90 CALM      30.04F
Westerly       CLEAR     62  60  93 CALM      30.04F
 IN MA

CITY           SKY/WX    TMP DP  RH WIND       PRES   REMARKS
Boston         CLEAR     66  64  93 CALM      30.03R
Worcester      CLEAR     76  63  64 N6        30.07S
Westfield      CLEAR     66  65  96 CALM      30.05F
Provincetown   CLEAR     64  63  96 S6        30.04S
Nantucket      FOG       62  62 100 CALM      30.04S VSB 1/4
$$

ANZ330-335-338-340-345-350-353-355-250800-
COASTAL MARINE OBSERVATIONS


STATION/POSITION TIME  SKY/WX   TEMP    WIND        PRES    VSBY  WAVE
                                AIR SEA DIR/SP/G                  HT/PER
                 (UTC)          (F)     (DEG/KT/KT) (MB)    (MI)  (FT/S)
NY HARB ENTRANCE 0550            71 71   CALM  /  2 1016.0          3/11
20 S FIRE ISLAND 0550            69 69   80/  2/  4 1016.8          4/11
GREAT SOUTH BAY  0630            70 71     CALM       N/A
23 SSW MONTAUK P 0550            66 65              1017.5          5/13
15 E BARNEGAT LI 0630               70                N/A           3/11
HUDSON CANYON    0550            67 69   30/ 10/ 12 1015.9          6/11
KINGS POINT      0636            70 72   CALM  /  1 1017.2
EXECUTION ROCKS  0645            72      40/  4/  6   N/A
WESTERN LI SOUND NOT AVBL
CENTRAL LI SOUND 0645            71     210/  4/  4   N/A           0
EASTERN LI SOUND NOT AVBL
ROBBINS REEF     0642            75     180/  3/  3 1017.0
$$


>>>>>>>>>>>>>>>>>>>>>>>>>>>> KEY <<<<<<<<<<<<<<<<<<<<<<<<<<<
>                                                          <
>     SKY/WX - Sky Condition/Present Weather               <
>     TMP    - Temperature in Fahrenheit                   <
>     DP     - Dew Point in Fahrenheit                     <
>     RH     - Relative Humidity in Percent                <
>     WIND   - Direction (from) and Speed in MPH           <
>     PRES   - Mean Sea Level Pressure (inches of Hg)      <
>     WCI    - Wind Chill Index                            <
>     VSB    - VISIBILITY IN MILES                         <
>     HX     - HEAT INDEX                                  <
>     TC     - TEMPERATURE IN CELSIUS                      <
>     VRB    - VARIABLE WIND DIRECTION                     <
>                                                          <
>>>>>>>>>>>>>>>>>>>>>>>>>>>> KEY <<<<<<<<<<<<<<<<<<<<<<<<<<<




USA.gov is the U.S. government's official web portal to all federal, state and local government web resources and services.